Flag for Japan

Past Weather in Kawasaki, Japan — Yesterday and Last 2 Weeks

Now
84 °F

Partly sunny.


Feels Like: 94 °F
Forecast: 73 / 69 °F
Wind: 15 mph from South

Location: Tokyo International Airport

Current Time: Jul 12, 2020 at 11:32:04 am

Latest Report: Jul 12, 2020 at 10:30 am


Visibility: N/A

Pressure: 29.59 "Hg

Humidity: 79%

Dew Point: 77 °F

Location of KawasakiLocation

Past Weather in Kawasaki — Graph

°F

Kawasaki Temperature Yesterday

Maximum temperature yesterday: 86 °F (at 10:30 am)
Minimum temperature yesterday: 77 °F (at 12:00 am)
Average temperature yesterday: 81 °F

High & Low Weather Summary for the Past Weeks

 TemperatureHumidityPressure
High86 °F (Jul 2, 12:00 pm)100% (Jun 28, 4:00 am)29.98 "Hg (Jun 28, 4:00 am)
Low70 °F (Jun 28, 10:45 am)49% (Jul 2, 12:00 pm)29.47 "Hg (Jun 28, 12:30 pm)
Average78 °F86%29.71 "Hg
* Reported Jun 27 10:30 am — Jul 12 10:30 am, Kawasaki. Weather by CustomWeather, © 2020

Note: Actual official high and low records may vary slightly from our data, if they occured in-between our weather recording intervals... More about our weather records

Kawasaki Weather History for the Previous 24 Hours

Scroll right to see more
 ConditionsComfort  
Time TempWeatherWind HumidityBarometerVisibility
10:30 am
Sun, Jul 12
84 °FPartly sunny.15 mph79%29.59 "HgN/A
9:30 am84 °FPartly sunny.14 mph74%29.59 "HgN/A
9:00 am84 °FBroken clouds.13 mph74%29.59 "HgN/A
8:30 am84 °FBroken clouds.13 mph70%29.59 "HgN/A
8:00 am84 °FPartly sunny.7 mph74%29.59 "HgN/A
7:30 am84 °FPartly sunny.8 mph74%29.59 "HgN/A
7:00 am82 °FPartly sunny.12 mph79%29.59 "HgN/A
6:30 am79 °FPartly sunny.13 mph89%29.59 "HgN/A
6:00 am79 °FPartly sunny.10 mph89%29.59 "HgN/A
5:30 am79 °FScattered showers. Partly sunny.7 mph89%29.59 "HgN/A
5:00 am79 °FScattered showers. Partly sunny.20 mph89%29.59 "HgN/A
4:30 am79 °FSprinkles. Passing clouds.15 mph89%29.59 "HgN/A
4:00 am79 °FSprinkles. Passing clouds.16 mph89%29.59 "HgN/A
3:30 am79 °FScattered showers. Passing clouds.20 mph84%29.59 "HgN/A
3:02 am79 °FScattered showers. Passing clouds.23 mph84%29.59 "HgN/A
3:00 am79 °FScattered showers. Passing clouds.24 mph84%29.59 "HgN/A
2:36 am79 °FScattered showers. Passing clouds.18 mph84%29.59 "HgN/A
2:30 am79 °FScattered showers. Passing clouds.21 mph89%29.59 "HgN/A
2:00 am79 °FPassing clouds.23 mph89%29.59 "HgN/A
1:31 am77 °FPassing clouds.23 mph94%29.62 "HgN/A
1:30 am79 °FPassing clouds.24 mph89%29.62 "HgN/A
1:00 am79 °FScattered showers. Passing clouds.22 mph94%29.59 "HgN/A
12:36 am79 °FSprinkles. Partly cloudy.17 mph94%29.62 "HgN/A
12:00 am77 °FStrong thunderstorms. Partly cloudy.21 mph89%29.65 "Hg2 mi
11:45 pm
Sat, Jul 11
79 °FThunderstorms. Passing clouds.21 mph94%29.65 "HgN/A
11:42 pm79 °FThunderstorms. Passing clouds.21 mph94%29.65 "HgN/A
11:30 pm79 °FSprinkles. Partly cloudy.21 mph94%29.65 "HgN/A
11:06 pm81 °FSprinkles. Partly cloudy.28 mph89%29.65 "HgN/A
11:00 pm81 °FSprinkles. Partly cloudy.28 mph89%29.65 "HgN/A
10:30 pm81 °FScattered showers. Partly cloudy.24 mph89%29.65 "HgN/A
10:00 pm81 °FScattered showers. Partly cloudy.24 mph84%29.65 "HgN/A
9:30 pm79 °FPartly cloudy.24 mph89%29.65 "HgN/A
9:00 pm81 °FPartly cloudy.25 mph89%29.65 "HgN/A
8:34 pm81 °FClear.18 mph84%29.65 "Hg10 mi
8:30 pm81 °FClear.18 mph84%29.65 "Hg10 mi
8:00 pm81 °FPartly cloudy.18 mph84%29.65 "HgN/A
7:35 pm81 °FPartly cloudy.18 mph84%29.65 "HgN/A
7:30 pm81 °FPartly cloudy.20 mph84%29.65 "HgN/A
7:00 pm81 °FPartly cloudy.21 mph84%29.65 "HgN/A
6:36 pm82 °FPartly sunny.23 mph79%29.62 "HgN/A
6:00 pm81 °FBroken clouds.26 mph84%29.62 "HgN/A
5:45 pm81 °FBroken clouds.21 mph89%29.62 "HgN/A
5:30 pm81 °FBroken clouds.22 mph89%29.62 "HgN/A
5:00 pm81 °FSprinkles. Partly sunny.24 mph89%29.62 "HgN/A
4:40 pm81 °FSprinkles. Broken clouds.24 mph89%29.62 "HgN/A
4:30 pm81 °FSprinkles. Broken clouds.28 mph89%29.62 "HgN/A
4:03 pm82 °FScattered showers. Broken clouds.22 mph84%29.65 "HgN/A
3:42 pm82 °FPartly sunny.22 mph84%29.65 "HgN/A
3:30 pm82 °FPartly sunny.21 mph84%29.62 "HgN/A
3:00 pm82 °FPartly sunny.23 mph84%29.65 "HgN/A
2:30 pm84 °FPartly sunny.24 mph79%29.65 "HgN/A
2:03 pm82 °FPartly sunny.25 mph84%29.65 "HgN/A
1:47 pm81 °FScattered showers. Partly sunny.24 mph89%29.65 "HgN/A
1:30 pm81 °FSprinkles. Broken clouds.24 mph89%29.65 "HgN/A
1:00 pm84 °FScattered showers. Partly sunny.26 mph79%29.68 "HgN/A
12:33 pm86 °FPartly sunny.24 mph75%29.68 "HgN/A
12:30 pm84 °FPartly sunny.23 mph79%29.68 "HgN/A
12:00 pm84 °FPartly sunny.26 mph79%29.68 "HgN/A
11:30 am86 °FSprinkles. Broken clouds.24 mph75%29.68 "HgN/A
11:00 am84 °FPartly sunny.22 mph79%29.71 "HgN/A
Weather by CustomWeather, © 2020

See weather overview